Погода в Гуково

Россия / Ростовская область     47°59′00″N   39°56′36″E
темп.,
°C
ветер,
м/с
пор.,
м/с
влажн.,
%
обл.,
%
осадки,
мм/ч
давл.,
гПа
погр.,
м
17 мая, вт
вт1700:00+9з49695 0.0 1015140
03:00+9з4107194 0.0 1014195
06:00+10зсз41081100 0.1 1013343
09:00+14сз6105947 0.4 10131535
12:00+16зсз7103984 0.1 10132568
15:00+15сз794741 0.1 10121949
18:00+14сз611528 0.0 10121869
21:00+9з33678 0.0 101341
18 мая, ср
ср1800:00+8юз357281 0.0 101275
03:00+9зюз3672100 0.0 1011113
06:00+10зсз2571100 0.0 1010156
09:00+13ю1365100 0.0 1010630
12:00+10в2391100 4.4 1010417
15:00+10св4696100 10.4 1009396
18:00+8ссв4796100 3.4 1010438
21:00+8ссв5896100 4.3 1011346
19 мая, чт
чт1900:00+8ссв4996100 0.3 1012344
03:00+8ссв51195100 0.6 1012460
06:00+7с71295100 2.2 1012452
09:00+8ссв71394100 8.6 1014778
12:00+9с51094100 12.4 10151048
15:00+10ююв019099 17.6 101681
18:00+11ссз6127599 0.6 1017590
21:00+10сз5117954 0.6 1019260
20 мая, пт
пт2000:00+8з4982100 0.0 1020144
03:00+8зсз4118480 0.0 1020225
06:00+9сз511855 0.0 1021300
09:00+14сз686727 0.0 1022910
12:00+15сз6858100 0.4 10211620
15:00+15зсз456678 0.6 1021995
18:00+15сз356676 0.4 10211015
21:00+11з2280100 0.4 102123
21 мая, сб
сб2100:00+11зюз4782100 0.0 1020112
03:00+10юз41087100 0.0 1017168
06:00+11юз6148245 0.0 1016336
09:00+16зюз91568100 0.0 1014825
12:00+19зюз101361100 0.0 10131268
15:00+18зюз91468100 0.1 10111150
18:00+16юз101680100 0.1 1010623
21:00+14юз9177698 0.2 1009562